Language: 


Des rapports , des résumés tant et plus, au choix de chacun....


Données statistiques de la station
Quotidien Rapport Juillet 29, 2017 Unités:  Anglais    Métrique   les deux
« Précédent Jour
Suivant Jour »
Quotidien Hebdomadaire Mensuel Annuel Actuel
  Haut: Bas: Moyen:
Température: 79.9 °F 32 °F 69.3 °F
Pt de rosée: 69.8 °F 57.2 °F 62.2 °F
Humidité: 95 % 0 % 77 %
Vitesse du vent: 12.3 mph 0 mph 4.6 mph
Rafales: 17.2 mph - -
Vent:- - SW
Pression: 29.9 in 0 in -
Précipitation: 0 in    
Historical Graphs
 
 
Données statistiques pour Juillet 29, 2017
Heure Température Point de rosée Pression Vent Vitesse du vent Refales Humidité Pluie (taux horaire)
00:03 63 °F 59 °F 29.9 in Calm   1.1 mph 84 % 0 in
00:08 63.1 °F 59 °F 29.9 in Calm   1.3 mph 84 % 0 in
00:13 63.1 °F 59 °F 29.9 in Calm   2.7 mph 84 % 0 in
00:18 63.1 °F 59 °F 29.9 in Calm   3.1 mph 84 % 0 in
00:24 63.5 °F 59 °F 29.9 in SW 1.1 mph 5.6 mph 84 % 0 in
00:29 63.9 °F 59 °F 29.9 in South 2.7 mph 5.6 mph 83 % 0 in
00:34 64.2 °F 59 °F 29.9 in SSW 0.9 mph 6 mph 82 % 0 in
00:39 64.6 °F 59 °F 29.9 in SSW 2.5 mph 6.9 mph 81 % 0 in
00:44 64.9 °F 59 °F 29.9 in SSW 6.5 mph 7.4 mph 80 % 0 in
00:49 64.9 °F 59 °F 29.9 in WSW 6.5 mph 7.8 mph 80 % 0 in
00:54 65.3 °F 59 °F 29.9 in SSE 3.8 mph 8.7 mph 79 % 0 in
00:59 65.5 °F 59 °F 29.9 in SSW 5.4 mph 10.3 mph 78 % 0 in
01:04 65.7 °F 59 °F 29.9 in SSW 5.6 mph 10.3 mph 77 % 0 in
01:09 65.7 °F 59 °F 29.9 in WSW 6.5 mph 10.5 mph 77 % 0 in
01:14 65.8 °F 57.2 °F 29.9 in SSW 8.5 mph 10.5 mph 76 % 0 in
01:19 65.8 °F 57.2 °F 29.9 in SW 5.8 mph 10.1 mph 76 % 0 in
01:24 66 °F 59 °F 29.9 in SW 3.8 mph 10.1 mph 76 % 0 in
01:29 66 °F 59 °F 29.9 in SW 5.8 mph 9.6 mph 76 % 0 in
01:34 66.2 °F 59 °F 29.9 in SSW 4.9 mph 9.6 mph 75 % 0 in
01:39 66.4 °F 57.2 °F 29.9 in SW 4.9 mph 11 mph 74 % 0 in
01:44 66.4 °F 59 °F 29.8 in WSW 8.7 mph 11 mph 75 % 0 in
01:49 66.4 °F 59 °F 29.8 in SW 6 mph 8.7 mph 75 % 0 in
01:54 66.6 °F 59 °F 29.8 in SW 6.5 mph 11 mph 74 % 0 in
01:59 66.6 °F 59 °F 29.8 in WSW 9.4 mph 11 mph 74 % 0 in
02:04 66.6 °F 57.2 °F 29.8 in SW 4 mph 11 mph 73 % 0 in
02:09 66.6 °F 57.2 °F 29.8 in SSW 9.2 mph 12.5 mph 73 % 0 in
02:14 66.6 °F 57.2 °F 29.8 in SSW 4.3 mph 12.5 mph 73 % 0 in
02:19 66.4 °F 57.2 °F 29.8 in WSW 6 mph 10.3 mph 73 % 0 in
02:24 66.4 °F 57.2 °F 29.8 in SW 10.3 mph 10.3 mph 73 % 0 in
02:29 66.6 °F 57.2 °F 29.8 in SW 6 mph 10.3 mph 73 % 0 in
02:34 66.6 °F 57.2 °F 29.8 in SSW 6 mph 10.3 mph 73 % 0 in
02:39 66.4 °F 57.2 °F 29.8 in SSW 4 mph 10.3 mph 73 % 0 in
02:44 66.4 °F 57.2 °F 29.8 in SW 6.3 mph 8.7 mph 73 % 0 in
02:49 66.4 °F 57.2 °F 29.8 in SSW 5.6 mph 11 mph 72 % 0 in
02:54 66.2 °F 57.2 °F 29.8 in WSW 8.1 mph 11 mph 72 % 0 in
03:04 66 °F 57.2 °F 29.8 in SSW 7.8 mph 9.6 mph 73 % 0 in
03:09 65.8 °F 57.2 °F 29.8 in WSW 5.8 mph 8.9 mph 73 % 0 in
03:14 65.8 °F 57.2 °F 29.8 in SW 6.3 mph 11 mph 73 % 0 in
03:19 65.7 °F 57.2 °F 29.8 in SSW 6.5 mph 11 mph 73 % 0 in
03:24 65.7 °F 57.2 °F 29.8 in SSW 4 mph 9.8 mph 74 % 0 in
03:29 65.8 °F 57.2 °F 29.8 in WSW 8.5 mph 10.5 mph 74 % 0 in
03:34 66 °F 57.2 °F 29.8 in SW 9.6 mph 10.5 mph 73 % 0 in
03:38 66 °F 57.2 °F 29.8 in SW 5.6 mph 10.5 mph 73 % 0 in
03:43 66 °F 57.2 °F 29.8 in SSW 3.1 mph 10.5 mph 73 % 0 in
03:48 66 °F 57.2 °F 29.8 in SW 7.4 mph 12.3 mph 73 % 0 in
03:53 65.8 °F 57.2 °F 29.8 in WSW 5.6 mph 12.3 mph 73 % 0 in
03:58 65.8 °F 57.2 °F 29.8 in SW 0.9 mph 12.1 mph 74 % 0 in
04:04 65.8 °F 57.2 °F 29.8 in South 7.4 mph 11.4 mph 74 % 0 in
04:09 66 °F 57.2 °F 29.8 in WSW 3.6 mph 11.4 mph 73 % 0 in
04:14 66 °F 57.2 °F 29.8 in SW 7.6 mph 9.8 mph 73 % 0 in
04:19 65.8 °F 57.2 °F 29.8 in SSW 6.5 mph 9.8 mph 73 % 0 in
04:24 66 °F 57.2 °F 29.8 in WSW 6.5 mph 9.4 mph 73 % 0 in
04:29 66 °F 57.2 °F 29.8 in WSW 5.6 mph 11.9 mph 73 % 0 in
04:34 66 °F 57.2 °F 29.8 in SSW 7.2 mph 11.9 mph 73 % 0 in
04:39 65.8 °F 57.2 °F 29.8 in SW 5.6 mph 9.6 mph 73 % 0 in
04:44 65.8 °F 57.2 °F 29.8 in SW 6 mph 9.6 mph 74 % 0 in
04:49 65.8 °F 57.2 °F 29.8 in SSW 3.1 mph 8.7 mph 74 % 0 in
04:54 65.8 °F 57.2 °F 29.8 in SW 7.2 mph 7.8 mph 74 % 0 in
04:59 65.8 °F 57.2 °F 29.8 in SSW 5.8 mph 8.7 mph 74 % 0 in
05:04 65.8 °F 57.2 °F 29.8 in SW 10.3 mph 10.3 mph 75 % 0 in
05:09 65.7 °F 57.2 °F 29.8 in SSW 7.8 mph 10.3 mph 75 % 0 in
05:14 65.8 °F 57.2 °F 29.8 in SSW 3.4 mph 10.3 mph 75 % 0 in
05:19 65.8 °F 57.2 °F 29.8 in WSW 4.9 mph 9.8 mph 75 % 0 in
05:24 65.7 °F 57.2 °F 29.8 in West 6.3 mph 9.8 mph 75 % 0 in
05:29 65.7 °F 57.2 °F 29.8 in SW 6.3 mph 9.6 mph 76 % 0 in
05:34 65.7 °F 57.2 °F 29.8 in Calm   9.8 mph 76 % 0 in
05:39 65.7 °F 57.2 °F 29.8 in SW 7.4 mph 9.8 mph 76 % 0 in
05:44 65.7 °F 57.2 °F 29.8 in WSW 6 mph 10.3 mph 76 % 0 in
05:50 65.7 °F 59 °F 29.8 in SSW 8.1 mph 10.7 mph 77 % 0 in
05:55 65.7 °F 59 °F 29.8 in WSW 8.7 mph 13.2 mph 78 % 0 in
06:00 65.7 °F 59 °F 29.8 in WSW 1.3 mph 13.2 mph 78 % 0 in
06:05 65.7 °F 59 °F 29.8 in SW 6 mph 11.2 mph 78 % 0 in
06:10 65.7 °F 59 °F 29.8 in WSW 6 mph 10.3 mph 78 % 0 in
06:15 65.7 °F 59 °F 29.8 in WSW 7.2 mph 8.5 mph 79 % 0 in
06:20 65.7 °F 59 °F 29.8 in SW 7.4 mph 8.7 mph 79 % 0 in
06:25 65.7 °F 59 °F 29.8 in WSW 8.7 mph 10.7 mph 79 % 0 in
06:30 65.7 °F 59 °F 29.8 in SSW 6 mph 10.7 mph 79 % 0 in
06:35 65.8 °F 59 °F 29.8 in SW 6.5 mph 9.6 mph 79 % 0 in
06:40 65.7 °F 59 °F 29.8 in SSW 9.6 mph 9.6 mph 79 % 0 in
06:45 65.7 °F 59 °F 29.8 in West 5.4 mph 11 mph 79 % 0 in
06:50 65.7 °F 59 °F 29.8 in WSW 8.5 mph 11 mph 79 % 0 in
06:55 65.7 °F 59 °F 29.8 in SW 9.8 mph 11.2 mph 80 % 0 in
07:00 65.7 °F 59 °F 29.8 in SSW 6.3 mph 11.2 mph 80 % 0 in
07:05 65.7 °F 59 °F 29.8 in SSW 5.4 mph 12.1 mph 80 % 0 in
07:10 65.7 °F 59 °F 29.8 in WSW 5.6 mph 12.1 mph 80 % 0 in
07:15 65.7 °F 59 °F 29.8 in SW 8.7 mph 10.7 mph 80 % 0 in
07:20 65.7 °F 59 °F 29.8 in WSW 8.7 mph 11.2 mph 80 % 0 in
07:25 65.5 °F 59 °F 29.8 in WSW 5.8 mph 11.2 mph 80 % 0 in
07:30 65.5 °F 59 °F 29.8 in WSW 5.6 mph 12.3 mph 81 % 0 in
07:35 65.7 °F 59 °F 29.8 in WSW 8.5 mph 12.3 mph 81 % 0 in
07:40 65.7 °F 59 °F 29.8 in SW 5.6 mph 10.3 mph 81 % 0 in
07:45 65.8 °F 59 °F 29.8 in SW 2.9 mph 10.3 mph 81 % 0 in
07:50 66 °F 60.8 °F 29.8 in SSW 5.8 mph 10.5 mph 81 % 0 in
07:56 66 °F 60.8 °F 29.9 in WSW 5.8 mph 10.5 mph 81 % 0 in
08:01 65.8 °F 59 °F 29.9 in SSW 4.3 mph 7.6 mph 81 % 0 in
08:06 66 °F 60.8 °F 29.9 in WSW 5.8 mph 10.1 mph 81 % 0 in
08:11 66 °F 60.8 °F 29.9 in WSW 4.7 mph 10.1 mph 81 % 0 in
08:16 66.2 °F 60.8 °F 29.9 in SW 6.3 mph 9.6 mph 81 % 0 in
08:21 66.2 °F 60.8 °F 29.9 in WSW 6.5 mph 12.3 mph 80 % 0 in
08:26 66.6 °F 60.8 °F 29.9 in WSW 8.9 mph 12.3 mph 81 % 0 in
08:31 66.6 °F 60.8 °F 29.9 in WSW 6.3 mph 13.2 mph 81 % 0 in
08:36 66.7 °F 60.8 °F 29.9 in SW 7.8 mph 13.2 mph 81 % 0 in
08:41 67.1 °F 60.8 °F 29.9 in SW 9.8 mph 13.2 mph 81 % 0 in
08:46 67.1 °F 60.8 °F 29.9 in SSW 5.8 mph 11 mph 80 % 0 in
08:51 67.5 °F 60.8 °F 29.9 in SSW 8.7 mph 11 mph 80 % 0 in
08:56 67.6 °F 60.8 °F 29.9 in SW 6.3 mph 10.3 mph 80 % 0 in
10:13 32 °F 62.6 °F 0 in SSW 7.4 mph 7.4 mph 0 % 0 in
10:18 70.2 °F 62.6 °F 29.9 in WSW 7.6 mph 17.2 mph 77 % 0 in
10:23 70.5 °F 62.6 °F 29.9 in WSW 12.1 mph 17.2 mph 77 % 0 in
10:28 71.2 °F 62.6 °F 29.9 in WSW 8.5 mph 13 mph 76 % 0 in
10:33 71.2 °F 62.6 °F 29.9 in West 11 mph 13.2 mph 75 % 0 in
10:38 71.2 °F 62.6 °F 29.9 in WSW 12.1 mph 15.4 mph 75 % 0 in
10:43 71.1 °F 62.6 °F 29.9 in WSW 11.9 mph 15.4 mph 75 % 0 in
10:49 71.4 °F 64.4 °F 29.9 in South 12.3 mph 15.4 mph 75 % 0 in
10:54 71.8 °F 64.4 °F 29.9 in SSW 9.2 mph 15.4 mph 75 % 0 in
10:59 71.8 °F 62.6 °F 29.9 in WSW 9.8 mph 14.8 mph 74 % 0 in
11:04 72.3 °F 64.4 °F 29.9 in West 6.7 mph 13.2 mph 74 % 0 in
11:09 72 °F 62.6 °F 29.9 in SW 5.6 mph 12.5 mph 73 % 0 in
11:14 71.6 °F 62.6 °F 29.9 in SW 9.6 mph 15.4 mph 73 % 0 in
11:19 72.3 °F 62.6 °F 29.9 in SW 10.1 mph 16.8 mph 73 % 0 in
11:24 72.5 °F 64.4 °F 29.9 in West 9.6 mph 16.8 mph 73 % 0 in
11:29 72.5 °F 64.4 °F 29.8 in WSW 9.2 mph 13 mph 72 % 0 in
11:34 72.3 °F 62.6 °F 29.8 in WSW 8.1 mph 11 mph 72 % 0 in
11:39 71.8 °F 62.6 °F 29.8 in SW 6 mph 14.5 mph 72 % 0 in
11:44 71.2 °F 62.6 °F 29.9 in SW 7.4 mph 14.5 mph 73 % 0 in
11:49 71.1 °F 62.6 °F 29.9 in SSW 6.3 mph 11.4 mph 74 % 0 in
11:54 71.1 °F 62.6 °F 29.9 in SW 9.4 mph 12.5 mph 74 % 0 in
11:59 71.4 °F 64.4 °F 29.9 in South 8.1 mph 12.5 mph 75 % 0 in
12:04 71.6 °F 62.6 °F 29.9 in West 7.6 mph 11 mph 74 % 0 in
12:09 71.6 °F 62.6 °F 29.9 in WSW 8.5 mph 11.9 mph 74 % 0 in
12:14 72 °F 64.4 °F 29.9 in West 8.1 mph 13.9 mph 74 % 0 in
12:19 72.7 °F 64.4 °F 29.9 in WSW 9.2 mph 14.1 mph 74 % 0 in
14:07 32 °F 64.4 °F 0 in West 6.3 mph 6.3 mph 0 % 0 in
14:12 74.5 °F 66.2 °F 29.9 in West 8.5 mph 10.1 mph 76 % 0 in
14:17 75.9 °F 68 °F 29.9 in SW 10.5 mph 10.5 mph 75 % 0 in
14:22 75.2 °F 64.4 °F 29.9 in West 6.9 mph 12.8 mph 70 % 0 in
14:27 74.8 °F 64.4 °F 29.9 in WSW 4.9 mph 12.8 mph 70 % 0 in
14:32 74.8 °F 64.4 °F 29.9 in SW 7.4 mph 11.4 mph 71 % 0 in
14:37 75.2 °F 66.2 °F 29.9 in WSW 4.9 mph 10.7 mph 71 % 0 in
14:42 75.7 °F 64.4 °F 29.9 in SW 6 mph 9.4 mph 69 % 0 in
14:47 76.6 °F 66.2 °F 29.9 in West 9.8 mph 9.8 mph 68 % 0 in
14:53 76.1 °F 64.4 °F 29.9 in WSW 3.8 mph 9.8 mph 67 % 0 in
14:58 75.7 °F 64.4 °F 29.8 in WSW 4.3 mph 9.4 mph 67 % 0 in
15:03 75.6 °F 64.4 °F 29.8 in WSW 5.6 mph 7.8 mph 68 % 0 in
15:08 76.1 °F 66.2 °F 29.8 in WSW 4.3 mph 7.8 mph 69 % 0 in
15:13 76.3 °F 64.4 °F 29.8 in SSW 5.4 mph 8.5 mph 67 % 0 in
15:18 75.6 °F 64.4 °F 29.8 in WSW 5.8 mph 10.7 mph 67 % 0 in
15:23 75 °F 64.4 °F 29.8 in SSW 7.6 mph 14.1 mph 67 % 0 in
15:28 74.8 °F 64.4 °F 29.8 in SW 7.8 mph 14.1 mph 68 % 0 in
15:33 74.7 °F 64.4 °F 29.8 in SW 8.7 mph 10.3 mph 68 % 0 in
15:38 74.7 °F 64.4 °F 29.8 in WSW 5.4 mph 10.1 mph 69 % 0 in
15:43 74.3 °F 64.4 °F 29.8 in SW 8.5 mph 10.1 mph 69 % 0 in
15:48 74.1 °F 62.6 °F 29.8 in SSW 7.6 mph 11.9 mph 69 % 0 in
15:53 74.5 °F 64.4 °F 29.8 in SSW 6.5 mph 11.9 mph 69 % 0 in
15:58 75.2 °F 64.4 °F 29.8 in WSW 3.8 mph 11.9 mph 69 % 0 in
16:03 75.7 °F 64.4 °F 29.8 in SW 8.1 mph 9.4 mph 68 % 0 in
16:08 75.6 °F 64.4 °F 29.8 in SW 5.8 mph 10.3 mph 68 % 0 in
16:13 75.2 °F 64.4 °F 29.8 in West 7.4 mph 10.3 mph 68 % 0 in
16:18 75 °F 64.4 °F 29.8 in SSW 7.2 mph 9.6 mph 68 % 0 in
16:23 75 °F 64.4 °F 29.8 in WSW 8.7 mph 9.6 mph 68 % 0 in
16:28 75 °F 64.4 °F 29.8 in WSW 5.4 mph 8.7 mph 69 % 0 in
16:30 75 °F 64.4 °F 29.8 in WSW 6.3 mph 8.7 mph 69 % 0 in
16:35 74.8 °F 64.4 °F 29.8 in WSW 6.5 mph 10.1 mph 68 % 0 in
16:40 74.7 °F 64.4 °F 29.8 in WSW 5.4 mph 10.1 mph 69 % 0 in
16:45 75.4 °F 64.4 °F 29.8 in WSW 5.4 mph 9.8 mph 68 % 0 in
16:50 76.1 °F 66.2 °F 29.8 in SW 4.5 mph 7.8 mph 69 % 0 in
16:55 75.9 °F 64.4 °F 29.8 in WSW 3.6 mph 9.6 mph 68 % 0 in
17:00 76.1 °F 64.4 °F 29.8 in WSW 5.6 mph 9.6 mph 67 % 0 in
17:05 76.5 °F 64.4 °F 29.8 in WSW 3.6 mph 6.7 mph 67 % 0 in
17:10 76.3 °F 66.2 °F 29.8 in WSW 4.9 mph 6.3 mph 68 % 0 in
17:16 76.1 °F 66.2 °F 29.8 in West 3.8 mph 6.3 mph 68 % 0 in
17:21 75.6 °F 64.4 °F 29.8 in West 2.9 mph 5.4 mph 68 % 0 in
17:26 75.2 °F 64.4 °F 29.8 in WNW 4.3 mph 5.4 mph 69 % 0 in
17:31 75.6 °F 66.2 °F 29.8 in Calm   4.9 mph 70 % 0 in
17:36 75.6 °F 64.4 °F 29.8 in NW 2.5 mph 4.7 mph 69 % 0 in
17:41 75.6 °F 64.4 °F 29.8 in Calm   4.7 mph 69 % 0 in
17:46 75.4 °F 64.4 °F 29.8 in Calm   1.3 mph 69 % 0 in
17:51 75 °F 64.4 °F 29.8 in Calm     70 % 0 in
17:56 75 °F 66.2 °F 29.8 in Calm     71 % 0 in
18:01 75.2 °F 66.2 °F 29.8 in Calm     71 % 0 in
18:06 75.2 °F 66.2 °F 29.8 in Calm     71 % 0 in
18:11 75.6 °F 66.2 °F 29.8 in Calm     71 % 0 in
18:16 76.3 °F 68 °F 29.8 in Calm     72 % 0 in
18:21 76.6 °F 66.2 °F 29.8 in Calm     71 % 0 in
18:26 76.6 °F 66.2 °F 29.8 in Calm     71 % 0 in
18:31 77.4 °F 68 °F 29.8 in Calm     70 % 0 in
18:36 78.8 °F 68 °F 29.8 in Calm     70 % 0 in
18:41 79.9 °F 69.8 °F 29.7 in Calm     68 % 0 in
18:46 79 °F 68 °F 29.7 in Calm     67 % 0 in
18:51 78.3 °F 66.2 °F 29.7 in Calm     67 % 0 in
18:56 77.5 °F 66.2 °F 29.7 in Calm     68 % 0 in
19:01 77 °F 66.2 °F 29.7 in Calm     68 % 0 in
19:06 76.5 °F 66.2 °F 29.7 in Calm     68 % 0 in
19:11 76.1 °F 66.2 °F 29.7 in Calm     69 % 0 in
19:16 75.7 °F 64.4 °F 29.7 in Calm     69 % 0 in
19:22 75.7 °F 66.2 °F 29.7 in Calm     70 % 0 in
19:27 75.6 °F 66.2 °F 29.7 in Calm     70 % 0 in
19:32 74.5 °F 66.2 °F 29.7 in NNW 3.8 mph 8.7 mph 74 % 0 in
19:37 73.8 °F 66.2 °F 29.7 in North 1.6 mph 8.7 mph 76 % 0 in
19:42 73 °F 66.2 °F 29.7 in North 3.8 mph 7.6 mph 78 % 0 in
19:47 72.7 °F 66.2 °F 29.7 in NNW 5.6 mph 7.6 mph 80 % 0 in
19:52 72.1 °F 66.2 °F 29.7 in NNW 3.4 mph 7.8 mph 81 % 0 in
19:57 71.8 °F 66.2 °F 29.7 in North 4.3 mph 7.8 mph 81 % 0 in
20:02 71.2 °F 66.2 °F 29.7 in NE 4 mph 7.6 mph 83 % 0 in
20:07 70.9 °F 66.2 °F 29.7 in North 5.4 mph 7.6 mph 84 % 0 in
20:12 70.5 °F 66.2 °F 29.7 in Calm   7.2 mph 84 % 0 in
20:17 70.3 °F 66.2 °F 29.7 in NNW 2.5 mph 6.3 mph 85 % 0 in
20:22 70.2 °F 66.2 °F 29.7 in Calm   4.9 mph 86 % 0 in
20:27 70 °F 66.2 °F 29.8 in Calm   4.3 mph 86 % 0 in
20:32 69.8 °F 66.2 °F 29.8 in Calm   3.4 mph 87 % 0 in
20:37 69.6 °F 66.2 °F 29.8 in Calm   1.6 mph 88 % 0 in
20:42 69.4 °F 66.2 °F 29.7 in Calm   1.6 mph 88 % 0 in
20:47 69.3 °F 66.2 °F 29.7 in NNE 2.9 mph 2.9 mph 89 % 0 in
20:52 69.1 °F 66.2 °F 29.7 in Calm   2.9 mph 89 % 0 in
20:57 69.1 °F 66.2 °F 29.7 in NNE 4 mph 4 mph 90 % 0 in
21:03 68.7 °F 66.2 °F 29.7 in Calm   4 mph 90 % 0 in
21:08 68.5 °F 66.2 °F 29.7 in Calm   2.7 mph 90 % 0 in
21:13 68.4 °F 66.2 °F 29.7 in Calm     90 % 0 in
21:18 68.2 °F 64.4 °F 29.7 in Calm     90 % 0 in
21:22 68 °F 64.4 °F 29.7 in Calm   2 mph 90 % 0 in
21:27 68 °F 66.2 °F 29.7 in Calm   2 mph 91 % 0 in
21:29 67.8 °F 66.2 °F 29.7 in Calm     91 % 0 in
21:39 67.8 °F 66.2 °F 29.7 in Calm     92 % 0 in
21:44 67.8 °F 66.2 °F 29.7 in Calm     92 % 0 in
21:49 67.8 °F 66.2 °F 29.7 in Calm     92 % 0 in
21:54 67.6 °F 64.4 °F 29.7 in Calm     92 % 0 in
21:59 67.6 °F 66.2 °F 29.7 in Calm     93 % 0 in
22:04 67.6 °F 66.2 °F 29.7 in Calm     93 % 0 in
22:09 67.6 °F 66.2 °F 29.7 in Calm     93 % 0 in
22:14 67.5 °F 66.2 °F 29.7 in Calm     93 % 0 in
22:19 67.5 °F 66.2 °F 29.7 in Calm     93 % 0 in
22:24 67.5 °F 66.2 °F 29.7 in Calm     93 % 0 in
22:29 67.5 °F 66.2 °F 29.7 in Calm     94 % 0 in
22:34 67.5 °F 66.2 °F 29.7 in Calm     94 % 0 in
22:39 67.5 °F 66.2 °F 29.7 in Calm     94 % 0 in
22:44 67.3 °F 66.2 °F 29.7 in Calm     94 % 0 in
22:49 67.3 °F 66.2 °F 29.7 in Calm     94 % 0 in
22:54 67.3 °F 66.2 °F 29.7 in Calm     94 % 0 in
22:59 67.1 °F 66.2 °F 29.7 in Calm     94 % 0 in
23:04 66.9 °F 64.4 °F 29.7 in Calm     94 % 0 in
23:09 66.7 °F 64.4 °F 29.7 in Calm     94 % 0 in
23:14 66.6 °F 64.4 °F 29.7 in Calm     94 % 0 in
23:19 66.6 °F 64.4 °F 29.7 in Calm     94 % 0 in
23:25 66.6 °F 64.4 °F 29.7 in Calm     94 % 0 in
23:30 66.6 °F 64.4 °F 29.7 in Calm     94 % 0 in
23:35 66.4 °F 64.4 °F 29.7 in Calm     94 % 0 in
23:40 66.4 °F 64.4 °F 29.7 in Calm     95 % 0 in
23:45 66.4 °F 64.4 °F 29.7 in Calm     95 % 0 in
23:50 66.4 °F 64.4 °F 29.7 in Calm     95 % 0 in
23:55 66.4 °F 64.4 °F 29.7 in Calm     95 % 0 in
Le Gheer Warneton
Courtoisie de Weather Underground - 2 mb

Mise a jour : 17-12-17 07:11:12
Généré par Cumulus 1.9.4 (1099)